Location: Hradec Kralove
(50.2170°N, 15.8330°E)
Time: 10:25:07
(UTC+01:00)

ISS - Pass Details

Date: 21 February 2026
Orbit: 416 x 426 km, 51.6° (Epoch: 9 March)

Event Time Altitude Azimuth Distance (km) Brightness Sun altitude
Exits shadow 04:13:16 25° 85° (E) 889 -1.5 -26.7°
Drops below altitude 10° 04:14:50 10° 77° (ENE) 1,496 0.1 -26.4°
Sets 04:16:57 0° 73° (ENE) 2,360 1.4 -26.1°
